Silver City, NM

9:50 AM MDT on May 25, 2018 (GMT -0600)
Grant County

Weather History for KSVC - January, 2014

Change the Weather History Date:

Wednesday, January 1, 2014

  Actual Average (KDMN) Record (KDMN)
Temperature  
Mean Temperature 45 °F -  
Max Temperature 62 °F 55 °F 68 °F (1957)
Min Temperature 28 °F 26 °F 8 °F (1967)
Degree Days  
Heating Degree Days 20    
Moisture  
Dew Point 17 °F    
Average Humidity 38    
Maximum Humidity 64    
Minimum Humidity 18    
Precipitation  
Precipitation 0.00 in - - ()
Sea Level Pressure  
Sea Level Pressure 30.18 in    
Wind  
Wind Speed 11 mph (NW)    
Max Wind Speed 20 mph    
Max Gust Speed 16 mph    
Visibility 10 miles    
Events      
Averages and records for this station are not official NWS values.
T = Trace of Precipitation, MM = Missing Value Source: NWS Daily Summary

Daily Weather History Graph

Daily Weather History Graph

Search for Another Location

Airport or City:

Astronomy

Jan. 01, 2014 Rise Set
Actual Time 7:14 AM MST 5:17 PM MST
Civil Twilight 6:47 AM MST 5:45 PM MST
Nautical Twilight 6:16 AM MST 6:15 PM MST
Astronomical Twilight 5:47 AM MST 6:45 PM MST
Moon 7:11 AM MST (1/1) 6:02 PM MST (1/1)
Length of Visible Light 10h 57m
Length of Day
10h 03m
New Moon, 0% of the Moon is Illuminated
Jan 1
New Moon
Jan 7
First Quarter
Jan 15
Full
Jan 23
Last Quarter
Jan 30
New

Hourly Weather History & Observations

Time (MST) Temp. Windchill Dew Point Humidity Pressure Visibility Wind Dir Wind Speed Gust Speed Precip Events Conditions
12:15 AM 30.2 °F 21.9 °F 17.6 °F 60% 30.18 in 10.0 mi NW 9.2 mph - N/A   Clear
12:35 AM 28.4 °F 18.5 °F 17.6 °F 64% 30.18 in 10.0 mi NW 11.5 mph - N/A   Clear
12:55 AM 32.0 °F 22.5 °F 17.6 °F 55% 30.17 in 10.0 mi NW 12.7 mph - N/A   Clear
1:15 AM 32.0 °F 23.6 °F 17.6 °F 55% 30.17 in 10.0 mi NW 10.4 mph - N/A   Clear
1:35 AM 32.0 °F 24.8 °F 17.6 °F 55% 30.17 in 10.0 mi NW 8.1 mph - N/A   Clear
1:55 AM 30.2 °F 25.4 °F 17.6 °F 60% 30.17 in 10.0 mi NW 4.6 mph - N/A   Clear
2:15 AM 30.2 °F 25.4 °F 17.6 °F 60% 30.17 in 10.0 mi NW 4.6 mph - N/A   Clear
2:35 AM 30.2 °F 21.9 °F 17.6 °F 60% 30.17 in 10.0 mi NNW 9.2 mph - N/A   Clear
2:55 AM 33.8 °F 23.9 °F 19.4 °F 56% 30.16 in 10.0 mi NW 15.0 mph - N/A   Clear
3:15 AM 33.8 °F 24.8 °F 17.6 °F 52% 30.16 in 10.0 mi NW 12.7 mph - N/A   Clear
3:35 AM 32.0 °F 22.5 °F 17.6 °F 55% 30.16 in 10.0 mi NW 12.7 mph - N/A   Clear
3:55 AM 32.0 °F 22.5 °F 19.4 °F 60% 30.15 in 10.0 mi NNW 12.7 mph - N/A   Clear
4:15 AM 33.8 °F 24.3 °F 19.4 °F 56% 30.15 in 10.0 mi NW 13.8 mph - N/A   Clear
4:35 AM 32.0 °F 22.5 °F 17.6 °F 55% 30.15 in 10.0 mi NNW 12.7 mph - N/A   Clear
4:55 AM 32.0 °F 23.0 °F 17.6 °F 55% 30.14 in 10.0 mi NNW 11.5 mph - N/A   Clear
5:15 AM 32.0 °F 23.0 °F 17.6 °F 55% 30.14 in 10.0 mi NW 11.5 mph - N/A   Clear
5:35 AM 32.0 °F 21.6 °F 17.6 °F 55% 30.15 in 10.0 mi NW 15.0 mph - N/A   Clear
5:55 AM 33.8 °F 24.3 °F 17.6 °F 52% 30.15 in 10.0 mi NW 13.8 mph - N/A   Clear
6:15 AM 32.0 °F 22.5 °F 17.6 °F 55% 30.15 in 10.0 mi NW 12.7 mph - N/A   Clear
6:35 AM 32.0 °F 22.1 °F 17.6 °F 55% 30.15 in 10.0 mi NW 13.8 mph - N/A   Clear
6:55 AM 32.0 °F 22.1 °F 17.6 °F 55% 30.15 in 10.0 mi NW 13.8 mph - N/A   Clear
7:15 AM 32.0 °F 21.2 °F 17.6 °F 55% 30.15 in 10.0 mi NW 16.1 mph - N/A   Clear
7:35 AM 33.8 °F 23.5 °F 17.6 °F 52% 30.16 in 10.0 mi NW 16.1 mph - N/A   Clear
7:55 AM 37.4 °F 27.8 °F 17.6 °F 45% 30.16 in 10.0 mi NW 17.3 mph - N/A   Clear
8:15 AM 39.2 °F 30.5 °F 19.4 °F 45% 30.17 in 10.0 mi NW 16.1 mph - N/A   Clear
8:35 AM 42.8 °F 35.1 °F 19.4 °F 39% 30.18 in 10.0 mi NW 16.1 mph - N/A   Clear
8:55 AM 46.4 °F 39.5 °F 19.4 °F 34% 30.19 in 10.0 mi NW 17.3 mph - N/A   Clear
9:15 AM 48.2 °F - 19.4 °F 32% 30.19 in 10.0 mi NW 18.4 mph - N/A   Clear
9:35 AM 48.2 °F - 17.6 °F 30% 30.20 in 10.0 mi NW 19.6 mph - N/A   Clear
9:55 AM 50.0 °F - 17.6 °F 28% 30.19 in 10.0 mi WNW 17.3 mph - N/A   Clear
10:15 AM 53.6 °F - 15.8 °F 22% 30.20 in 10.0 mi WNW 15.0 mph - N/A   Clear
10:35 AM 53.6 °F - 15.8 °F 22% 30.20 in 10.0 mi WNW 17.3 mph - N/A   Clear
10:55 AM 55.4 °F - 15.8 °F 21% 30.19 in 10.0 mi WNW 16.1 mph - N/A   Clear
11:15 AM 55.4 °F - 15.8 °F 21% 30.19 in 10.0 mi WNW 15.0 mph - N/A   Clear
11:35 AM 57.2 °F - 15.8 °F 20% 30.18 in 10.0 mi West 13.8 mph - N/A   Clear
11:55 AM 57.2 °F - 15.8 °F 20% 30.17 in 10.0 mi WNW 13.8 mph - N/A   Clear
12:15 PM 57.2 °F - 15.8 °F 20% 30.16 in 10.0 mi West 9.2 mph - N/A   Clear
12:35 PM 59.0 °F - 15.8 °F 19% 30.15 in 10.0 mi WNW 9.2 mph - N/A   Clear
12:55 PM 59.0 °F - 15.8 °F 19% 30.14 in 10.0 mi WNW 10.4 mph - N/A   Clear
1:15 PM 59.0 °F - 15.8 °F 19% 30.14 in 10.0 mi WNW 10.4 mph - N/A   Clear
1:35 PM 59.0 °F - 17.6 °F 20% 30.13 in 10.0 mi West 6.9 mph - N/A   Clear
1:55 PM 59.0 °F - 17.6 °F 20% 30.12 in 10.0 mi NW 3.5 mph - N/A   Clear
2:15 PM 60.8 °F - 17.6 °F 19% 30.12 in 10.0 mi West 4.6 mph - N/A   Clear
2:35 PM 60.8 °F - 17.6 °F 19% 30.12 in 10.0 mi NNW 8.1 mph - N/A   Clear
2:55 PM 62.6 °F - 17.6 °F 18% 30.12 in 10.0 mi WNW 11.5 mph 16.1 mph N/A   Clear
3:15 PM 62.6 °F - 17.6 °F 18% 30.13 in 10.0 mi WNW 12.7 mph - N/A   Clear
3:35 PM 62.6 °F - 17.6 °F 18% 30.13 in 10.0 mi WNW 17.3 mph - N/A   Clear
3:55 PM 60.8 °F - 17.6 °F 19% 30.13 in 10.0 mi West 13.8 mph - N/A   Clear
4:15 PM 59.0 °F - 17.6 °F 20% 30.13 in 10.0 mi WNW 15.0 mph - N/A   Clear
4:35 PM 57.2 °F - 19.4 °F 23% 30.14 in 10.0 mi NW 13.8 mph - N/A   Clear
4:55 PM 57.2 °F - 19.4 °F 23% 30.14 in 10.0 mi NW 12.7 mph - N/A   Clear
5:15 PM 53.6 °F - 19.4 °F 26% 30.15 in 10.0 mi NW 11.5 mph - N/A   Clear
5:35 PM 51.8 °F - 19.4 °F 28% 30.16 in 10.0 mi NNW 12.7 mph 16.1 mph N/A   Clear
5:55 PM 48.2 °F - 19.4 °F 32% 30.17 in 10.0 mi NW 12.7 mph - N/A   Clear
6:15 PM 48.2 °F - 19.4 °F 32% 30.18 in 10.0 mi NNW 10.4 mph - N/A   Clear
6:35 PM 46.4 °F 42.9 °F 19.4 °F 34% 30.20 in 10.0 mi NNW 6.9 mph - N/A   Clear
6:55 PM 41.0 °F 35.8 °F 19.4 °F 42% 30.21 in 10.0 mi North 8.1 mph - N/A   Clear
7:15 PM 39.2 °F 33.0 °F 17.6 °F 42% 30.21 in 10.0 mi North 9.2 mph - N/A   Clear
7:35 PM 39.2 °F 32.0 °F 17.6 °F 42% 30.22 in 10.0 mi North 11.5 mph - N/A   Clear
7:55 PM 44.6 °F 39.2 °F 17.6 °F 34% 30.22 in 10.0 mi North 10.4 mph - N/A   Clear
8:15 PM 42.8 °F 34.8 °F 17.6 °F 36% 30.22 in 10.0 mi North 17.3 mph - N/A   Clear
8:35 PM 46.4 °F 40.7 °F 15.8 °F 29% 30.23 in 10.0 mi North 12.7 mph - N/A   Clear
8:55 PM 44.6 °F 38.4 °F 15.8 °F 31% 30.24 in 10.0 mi North 12.7 mph - N/A   Clear
9:15 PM 39.2 °F 33.0 °F 15.8 °F 39% 30.24 in 10.0 mi North 9.2 mph - N/A   Clear
9:35 PM 37.4 °F 29.8 °F 15.8 °F 41% 30.25 in 10.0 mi North 11.5 mph - N/A   Clear
9:55 PM 37.4 °F 33.8 °F 15.8 °F 41% 30.25 in 10.0 mi NNW 4.6 mph - N/A   Clear
10:15 PM 32.0 °F 27.5 °F 15.8 °F 51% 30.26 in 10.0 mi NW 4.6 mph - N/A   Clear
10:35 PM 32.0 °F - 15.8 °F 51% 30.26 in 10.0 mi Calm Calm - N/A   Clear
10:55 PM 37.4 °F 33.8 °F 15.8 °F 41% 30.26 in 10.0 mi West 4.6 mph - N/A   Clear
11:15 PM 37.4 °F 32.8 °F 15.8 °F 41% 30.27 in 10.0 mi WNW 5.8 mph - N/A   Clear
11:35 PM 37.4 °F 34.9 °F 15.8 °F 41% 30.28 in 10.0 mi West 3.5 mph - N/A   Clear
11:55 PM 32.0 °F 25.6 °F 15.8 °F 51% 30.28 in 10.0 mi WNW 6.9 mph - N/A   Clear